TimeEDT,TemperatureF,Dew PointF,Humidity,Sea Level PressureIn,VisibilityMPH,Wind Direction,Wind SpeedMPH,Gust SpeedMPH,PrecipitationIn,Events,Conditions,WindDirDegrees,DateUTC
12:02 AM,60.8,55.4,82,29.62,9.0,SSW,5.8,-,0.00,Rain,Light Rain,200,2013-10-18 04:02:00
12:51 AM,62.1,59.0,90,29.59,6.0,South,9.2,-,0.06,Rain,Light Rain,170,2013-10-18 04:51:00
1:09 AM,62.6,60.8,94,29.58,6.0,South,12.7,18.4,0.01,Rain,Light Rain,170,2013-10-18 05:09:00
1:32 AM,62.6,59.0,88,29.61,5.0,West,12.7,25.3,0.01,Rain,Rain,260,2013-10-18 05:32:00
1:42 AM,59.0,57.2,94,29.62,6.0,WNW,8.1,-,0.03,Rain,Light Rain,300,2013-10-18 05:42:00
1:51 AM,57.9,55.9,93,29.62,10.0,WNW,6.9,-,0.03,,Mostly Cloudy,290,2013-10-18 05:51:00
2:51 AM,55.0,51.1,86,29.67,10.0,West,4.6,-,N/A,,Scattered Clouds,270,2013-10-18 06:51:00
3:02 AM,55.4,51.8,88,29.67,10.0,West,9.2,-,N/A,,Mostly Cloudy,260,2013-10-18 07:02:00
3:35 AM,53.6,51.8,94,29.68,10.0,West,8.1,-,N/A,,Scattered Clouds,270,2013-10-18 07:35:00
3:51 AM,54.0,51.1,90,29.68,10.0,West,10.4,-,N/A,,Scattered Clouds,260,2013-10-18 07:51:00
4:51 AM,55.0,51.1,86,29.71,10.0,West,6.9,-,N/A,,Mostly Cloudy,260,2013-10-18 08:51:00
5:46 AM,55.4,51.8,88,29.74,10.0,WNW,4.6,-,0.00,Rain,Light Rain,290,2013-10-18 09:46:00
5:51 AM,55.0,51.1,86,29.75,10.0,WNW,15.0,24.2,0.00,Rain,Light Rain,300,2013-10-18 09:51:00
6:51 AM,54.0,48.0,80,29.75,10.0,NW,6.9,-,0.00,,Mostly Cloudy,310,2013-10-18 10:51:00
7:51 AM,53.1,46.9,80,29.78,10.0,WNW,10.4,-,N/A,,Scattered Clouds,290,2013-10-18 11:51:00
8:51 AM,57.0,46.9,69,29.81,10.0,West,10.4,-,N/A,,Scattered Clouds,270,2013-10-18 12:51:00
9:51 AM,59.0,46.9,64,29.81,10.0,West,10.4,-,N/A,,Scattered Clouds,270,2013-10-18 13:51:00
10:51 AM,60.1,45.0,57,29.83,10.0,West,13.8,-,N/A,,Mostly Cloudy,280,2013-10-18 14:51:00
11:51 AM,59.0,45.0,60,29.85,10.0,WSW,8.1,-,N/A,,Mostly Cloudy,250,2013-10-18 15:51:00
12:51 PM,59.0,44.1,58,29.84,10.0,WNW,5.8,-,N/A,,Overcast,300,2013-10-18 16:51:00
1:51 PM,62.1,45.0,53,29.83,10.0,NW,6.9,-,N/A,,Mostly Cloudy,310,2013-10-18 17:51:00
2:51 PM,64.0,39.9,41,29.83,10.0,West,13.8,17.3,N/A,,Scattered Clouds,280,2013-10-18 18:51:00
3:51 PM,63.0,35.1,35,29.84,10.0,West,15.0,27.6,N/A,,Partly Cloudy,270,2013-10-18 19:51:00
4:51 PM,62.1,36.0,38,29.85,10.0,WNW,15.0,21.9,N/A,,Partly Cloudy,290,2013-10-18 20:51:00
5:51 PM,57.9,35.1,42,29.88,10.0,NW,8.1,-,N/A,,Partly Cloudy,320,2013-10-18 21:51:00
6:51 PM,53.1,36.0,52,29.89,10.0,Calm,Calm,-,N/A,,Partly Cloudy,0,2013-10-18 22:51:00
7:51 PM,48.0,37.0,66,29.91,10.0,Calm,Calm,-,N/A,,Clear,0,2013-10-18 23:51:00
8:51 PM,46.0,37.9,73,29.94,10.0,Calm,Calm,-,N/A,,Clear,0,2013-10-19 00:51:00
9:51 PM,45.0,39.0,80,29.95,10.0,Calm,Calm,-,N/A,,Clear,0,2013-10-19 01:51:00
10:51 PM,44.1,37.9,79,29.96,10.0,Calm,Calm,-,N/A,,Clear,0,2013-10-19 02:51:00
11:51 PM,43.0,37.9,82,29.95,10.0,Calm,Calm,-,N/A,,Clear,0,2013-10-19 03:51:00